Location: Mahannah Oil Field
(37.4664°N, 96.6003°W)
Time: 09:14:48
(UTC+00:00)

Vanguard 2 Rocket - Visible Passes

Search period start: 18 June 2021 00:00
Search period end: 28 June 2021 00:00
Orbit: 554 x 3326 km, 32.9° (Epoch: 17 June)

Date Brightness Start Highest point End Pass type
(mag) Time Alt. Az. Time Alt. Az. Time Alt. Az.
18 Jun 9.4 01:51:02 10° SW 02:10:31 60° SSE 02:24:05 10° E visible
18 Jun 8.7 04:09:27 10° W 04:27:15 73° S 04:36:59 13° E visible
18 Jun 8.0 06:29:00 10° W 06:42:15 55° SSW 06:42:44 55° SSW visible
19 Jun 9.0 03:06:39 10° WSW 03:25:55 72° S 03:38:01 10° E visible
19 Jun 8.3 05:26:10 10° W 05:41:56 66° SSW 05:45:57 41° SE visible
19 Jun 9.1 07:45:48 10° W 07:51:42 24° WSW 07:51:42 24° WSW visible
20 Jun 9.4 02:04:12 10° WSW 02:24:12 68° SSE 02:38:07 10° E visible
20 Jun 8.7 04:23:13 10° W 04:41:06 73° S 04:49:09 22° ESE visible
20 Jun 8.4 06:42:57 10° W 06:54:54 44° SW 06:54:54 44° SW visible
21 Jun 9.0 03:20:18 10° W 03:39:46 75° S 03:51:59 10° E visible
21 Jun 8.3 05:40:02 10° W 05:55:35 58° SSW 05:58:06 49° SSE visible
21 Jun 9.6 08:00:29 10° W 08:03:51 16° WSW 08:03:51 16° WSW visible
22 Jun 9.4 02:17:42 10° WSW 02:37:59 74° S 02:52:04 10° E visible
22 Jun 8.7 04:37:02 10° W 04:54:52 68° SSW 05:01:17 32° ESE visible
22 Jun 9.0 06:57:06 10° W 07:07:01 33° SW 07:07:01 33° SW visible
23 Jun 9.0 03:34:05 10° W 03:53:35 74° S 04:04:27 16° ESE visible
23 Jun 8.5 05:53:57 10° W 06:09:00 48° SSW 06:10:12 47° SSW visible
24 Jun 9.4 02:31:24 10° W 02:51:47 76° S 03:06:01 10° E visible
24 Jun 8.7 04:50:53 10° W 05:08:27 60° SSW 05:13:23 40° SE visible
24 Jun 9.5 07:11:40 10° W 07:19:07 23° WSW 07:19:07 23° WSW visible
25 Jun 9.1 03:47:55 10° W 04:07:18 69° SSW 04:16:34 24° ESE visible
25 Jun 9.0 06:08:03 10° W 06:22:08 38° SW 06:22:18 38° SW visible
26 Jun 9.4 02:45:12 10° W 03:05:35 75° S 03:19:44 11° ESE visible
26 Jun 8.8 05:04:48 10° W 05:21:49 50° SSW 05:25:29 42° S visible
26 Jun 10.0 07:27:15 10° W 07:31:14 15° WSW 07:31:14 15° WSW visible
27 Jun 9.2 04:01:46 10° W 04:20:51 62° SSW 04:28:41 31° SE visible
27 Jun 9.5 06:22:34 10° W 06:34:25 28° SW 06:34:25 28° SW visible
